Wetbulb
59.88 59.25 55.02 47.08 37.07 34.26 30.11 34.82 37.10 37.79 39.20 43.56 46.62 53.12 55.33 57.15 52.31 46.96 65.73 69.44 70.64 71.33 72.76 72.99 74.03 74.10 74.22 73.98 73.29 73.36 73.07 72.68 71.79 70.20 70.45 70.71 70.61 70.49 71.47 70.21 69.39 69.61 69.02 69.84 70.13 69.16 68.36 68.85 69.25
57.69 57.07 49.23 41.50 31.79 27.21 29.76 35.12 38.70 40.06 42.14 45.71 48.57 52.05 55.61 57.26 62.28 63.96 66.24 70.18 71.20 71.59 72.42 72.77 73.76 74.05 73.94 73.86 73.79 73.24 73.13 72.74 72.22 72.00 70.98 70.39 70.02 69.84 70.09 69.31 70.36 70.16 69.60 69.35 68.91 68.39 68.04 68.14 68.38
60.35 57.74 43.70 38.28 31.48 28.38 30.53 36.07 40.05 41.69 45.03 44.66 45.62 52.99 57.50 59.10 63.24 64.31 68.74 70.44 71.17 71.22 72.22 72.95 73.64 74.08 73.87 73.77 73.75 73.14 72.90 73.01 72.47 71.85 71.15 70.72 69.46 69.41 69.44 69.47 70.75 71.14 70.63 70.53 68.58 67.89 68.62 69.32 70.31
55.81 47.31 44.31 36.63 32.24 34.39 36.11 36.76 41.77 43.14 45.45 45.39 50.18 52.70 58.79 62.57 63.19 67.11 69.67 70.42 70.37 70.90 71.93 73.17 73.64 73.93 73.93 73.36 73.24 73.15 73.03 72.72 72.23 71.86 71.29 70.60 69.04 69.49 68.71 69.43 69.93 70.25 70.91 70.26 68.20 67.86 68.37 69.12 71.19
49.68 43.55 36.15 33.60 34.57 36.48 37.79 41.43 42.02 43.61 44.64 44.60 48.86 51.10 55.78 62.25 66.97 68.98 69.20 69.76 69.46 70.57 72.12 72.84 73.55 73.69 73.68 73.15 73.15 73.12 73.26 72.90 72.00 71.71 71.25 69.78 68.98 68.84 68.39 69.72 69.48 68.10 69.30 69.81 68.05 67.26 67.53 69.24 69.93
43.66 41.04 30.77 29.86 33.55 36.81 39.62 42.96 43.01 45.37 46.10 46.06 53.84 53.37 56.43 62.94 67.04 68.07 68.99 68.52 69.72 70.11 71.61 72.55 72.18 72.72 72.83 72.91 72.85 72.50 72.55 72.88 71.99 71.75 71.39 69.68 68.59 68.38 68.13 68.88 68.84 68.28 68.68 69.16 68.11 67.08 66.69 67.72 69.30
40.78 36.93 33.56 31.15 33.60 35.64 39.66 42.68 42.53 45.01 46.52 47.21 54.24 52.95 58.08 61.39 65.71 68.27 68.04 68.53 69.12 69.75 70.42 71.51 72.00 71.92 71.66 72.17 72.26 72.33 72.45 72.27 71.61 71.41 70.77 69.46 68.38 68.58 68.12 68.26 67.98 68.28 68.64 68.10 69.12 67.27 66.34 66.50 68.11
43.54 38.92 33.39 33.83 34.41 35.76 40.77 42.27 44.83 45.90 45.69 49.84 56.15 53.99 56.19 61.24 64.56 66.87 67.28 68.13 68.26 68.37 69.03 69.61 70.51 71.19 71.17 71.12 70.83 71.15 71.21 70.93 70.66 70.15 68.82 67.24 66.56 67.16 67.91 67.02 66.73 66.65 66.34 67.75 68.52 67.51 66.80 67.86 67.23
44.99 35.92 32.22 35.00 34.99 38.17 41.91 40.63 42.93 45.10 46.73 46.02 48.54 56.88 62.18 63.00 65.62 66.51 66.28 66.77 66.95 67.32 67.97 68.53 68.84 69.23 69.15 69.07 69.05 69.38 69.21 68.95 68.54 67.44 65.73 64.60 63.70 63.70 62.87 64.46 65.61 65.75 67.25 67.12 68.37 67.59 67.07 65.85 65.14
41.48 35.03 36.70 40.55 40.73 39.05 42.41 41.84 44.04 44.54 44.48 47.66 53.92 57.40 62.31 63.09 64.16 64.88 64.89 64.95 65.44 65.72 66.58 67.78 67.62 67.66 67.76 68.98 67.35 67.21 67.99 67.92 66.85 65.06 63.17 62.42 61.48 61.23 62.34 62.38 64.59 66.20 66.17 67.10 67.78 66.85 65.84 62.74 60.26
41.92 36.90 41.49 43.44 44.19 44.47 43.59 42.35 43.72 43.61 41.65 47.43 52.24 59.10 60.83 61.38 62.21 62.92 64.21 65.11 65.28 66.18 66.82 67.06 67.26 67.21 66.81 66.84 66.14 66.40 66.97 66.66 65.43 63.32 62.09 61.37 61.14 61.17 60.39 59.65 60.13 59.89 62.10 63.84 63.50 61.79 59.78 59.09 58.01
38.54 43.73 42.92 44.65 45.40 43.77 42.39 44.73 41.76 42.85 44.38 48.66 57.69 60.90 60.15 60.14 61.13 61.90 62.35 63.28 63.39 65.18 66.48 67.07 67.27 67.11 66.61 66.51 66.08 66.01 66.47 65.87 64.74 63.14 62.56 61.27 59.82 59.59 58.53 57.53 57.24 57.39 59.57 60.17 59.08 58.53 58.62 58.34 58.03
40.40 41.34 45.18 45.19 45.26 44.31 44.80 42.61 41.83 41.89 46.19 52.91 58.96 60.22 59.42 59.32 58.45 60.61 62.84 63.34 63.22 62.84 65.25 66.67 67.07 67.00 66.94 66.19 65.80 65.98 66.12 65.60 65.22 63.60 62.58 62.00 60.56 59.41 58.07 57.36 56.79 56.60 57.74 59.36 58.14 58.44 59.38 58.69 58.39
43.12 44.38 43.19 44.50 45.12 43.99 42.24 42.03 43.09 43.74 46.59 49.81 57.78 57.39 58.40 57.62 57.22 56.90 58.99 61.02 62.17 62.98 63.50 64.38 66.49 67.02 66.94 66.07 65.23 66.14 66.14 65.87 65.24 64.61 63.16 62.01 62.06 59.87 58.48 57.56 57.38 56.56 57.22 58.08 58.91 58.54 58.22 59.02 58.51
45.19 40.28 43.30 43.75 42.46 42.11 42.92 38.78 40.32 44.20 47.00 47.47 54.48 56.69 56.54 56.99 55.73 56.43 56.72 58.98 61.34 62.22 63.38 63.77 64.21 65.61 66.39 65.76 65.15 65.27 65.96 66.13 65.25 65.33 63.75 62.18 61.73 60.89 58.70 58.27 57.53 56.93 57.15 57.71 57.48 57.60 57.24 58.65 59.64
40.60 38.18 34.74 40.37 43.22 42.35 41.65 34.33 41.42 44.71 45.14 44.38 45.79 49.74 53.50 53.63 54.57 54.74 54.93 55.74 57.63 60.22 61.96 63.21 65.47 64.51 64.14 64.65 64.84 64.82 65.29 65.58 65.48 65.55 64.66 62.92 61.74 60.96 59.39 58.58 58.35 57.36 57.17 57.45 56.06 56.61 55.38 56.55 58.35
35.60 32.02 33.90 36.50 43.50 40.96 40.08 34.95 41.53 43.78 44.21 43.55 44.94 46.43 48.75 47.63 46.30 48.63 51.85 52.96 54.91 58.34 60.00 60.79 62.18 62.31 62.34 63.20 63.63 64.07 64.40 64.75 64.78 64.37 65.04 64.11 63.40 61.83 60.51 59.49 58.72 57.64 57.44 57.26 56.87 55.65 55.53 55.36 55.42
29.84 31.28 31.84 34.29 38.40 38.16 36.44 36.39 40.01 42.01 42.74 42.82 43.37 45.86 44.21 42.90 43.78 47.68 48.70 50.22 49.82 50.20 54.02 56.53 57.76 59.17 59.37 60.37 61.90 62.38 62.31 62.93 63.96 64.29 64.31 64.00 64.40 62.71 61.07 60.23 59.55 58.55 58.38 58.74 57.00 55.28 54.89 55.30 55.34
34.19 30.92 32.14 32.87 39.10 39.38 38.06 38.99 39.84 41.30 42.93 40.27 40.89 39.82 39.95 41.82 42.63 43.28 44.49 45.54 47.12 47.45 48.80 49.88 53.13 54.22 55.86 56.49 58.30 58.27 59.16 62.07 63.09 63.31 63.93 64.05 62.84 61.45 60.90 59.18 59.48 59.02 59.37 59.40 58.78 56.61 56.57 55.71 54.83
36.27 31.24 29.35 33.52 38.05 38.11 36.43 37.06 39.39 39.34 38.78 39.06 38.11 36.70 37.00 36.44 37.23 38.99 40.22 41.14 42.58 43.47 44.94 48.05 50.16 51.74 53.47 55.49 57.51 57.98 57.77 58.30 60.23 61.94 63.38 63.61 63.67 62.39 61.18 60.29 58.87 59.05 57.10 57.28 57.80 56.97 55.21 55.50 56.18
36.06 33.72 29.84 30.32 34.02 33.03 33.70 31.10 36.59 34.97 35.52 35.30 34.03 34.02 33.49 32.98 33.57 35.66 37.31 37.51 38.93 40.13 41.47 45.23 48.20 50.83 51.99 54.52 57.14 55.90 56.41 56.15 57.32 58.55 59.81 61.93 63.33 61.72 60.72 60.65 60.09 59.32 58.95 57.93 57.99 57.59 56.75 55.37 56.35
32.06 38.42 36.64 33.40 31.12 25.92 33.03 23.02 29.88 31.22 29.58 29.76 29.45 28.86 29.07 30.13 32.42 33.76 34.55 35.46 36.96 38.24 40.69 43.08 46.35 49.12 52.08 53.52 56.44 55.37 54.99 54.21 55.89 57.59 59.15 60.44 62.11 62.22 60.94 60.94 60.38 59.69 59.02 57.98 57.64 57.43 56.21 56.16 55.11
34.65 37.89 37.16 35.55 28.79 26.16 26.35 23.67 25.39 28.40 26.20 25.84 26.16 27.02 27.09 28.09 30.28 31.10 32.31 34.82 36.11 37.09 38.45 40.65 43.81 46.92 49.38 50.84 55.20 56.38 55.21 55.67 54.82 56.14 57.35 59.62 61.31 62.17 61.64 61.25 60.43 59.84 59.33 58.27 58.13 57.95 57.84 58.38 56.82
37.72 36.48 35.21 35.04 31.22 25.27 26.09 24.57 22.01 25.80 25.02 23.03 24.68 26.02 26.58 27.39 28.39 30.39 32.47 34.02 34.01 35.15 36.91 39.38 41.07 44.31 45.44 47.65 51.14 55.01 55.74 54.20 54.04 54.63 55.96 57.06 60.71 61.03 60.83 60.84 60.84 60.55 59.79 58.76 58.23 58.41 58.31 57.86 57.80
34.29 32.42 25.71 24.15 23.61 22.64 29.48 23.28 16.34 20.59 23.97 23.47 22.60 23.76 24.68 25.61 27.25 28.29 29.04 30.27 32.00 32.68 34.55 37.33 38.60 40.55 42.40 43.72 48.57 53.77 54.72 55.07 55.08 55.44 56.95 58.35 57.03 58.97 60.25 60.15 59.67 59.00 59.87 59.42 59.02 58.15 57.85 57.17 56.21
23.10 30.69 25.75 18.56 20.98 23.33 28.53 20.73 14.84 21.36 23.25 23.99 24.27 24.26 24.85 24.76 25.62 26.62 28.26 29.58 30.51 31.81 33.54 34.87 36.43 38.00 39.81 41.70 45.37 51.46 54.17 55.49 55.81 55.94 56.81 57.74 58.66 58.34 60.16 60.07 59.98 59.81 59.74 59.27 58.92 58.27 57.61 57.45 56.81
18.86 21.71 23.05 26.07 25.90 23.99 15.43 15.52 20.19 21.73 20.78 21.85 21.96 22.48 22.14 23.23 24.48 25.66 27.50 28.64 29.88 31.71 32.72 34.33 35.55 36.92 38.91 39.41 42.42 46.21 52.97 54.91 56.24 57.00 56.81 57.06 57.86 58.04 58.12 59.04 59.19 59.28 59.22 59.03 58.36 58.05 57.51 57.13 56.71
13.97 16.95 19.53 26.15 17.14 14.86 11.44 12.44 12.43 17.10 17.85 20.16 19.72 19.77 21.29 22.86 23.95 25.37 26.82 28.14 29.51 30.93 32.19 34.31 35.67 36.46 37.96 38.87 39.70 42.49 46.65 52.93 55.57 56.69 56.84 56.77 57.18 56.49 56.89 58.46 58.91 58.57 58.67 58.81 58.44 57.74 57.75 57.02 56.82
7.00 4.96 7.02 11.94 16.36 17.69 6.47 7.56 19.30 18.64 18.38 17.95 18.74 19.93 20.35 21.52 22.51 24.07 25.79 27.44 28.65 29.95 30.68 31.68 33.48 35.19 36.50 37.55 38.36 40.23 44.11 49.05 54.12 55.26 55.89 57.26 57.90 57.08 57.34 58.22 58.24 58.19 58.14 58.36 58.25 58.13 57.51 56.83 56.67
10.98 6.68 7.18 7.41 10.76 8.49 7.73 4.07 19.85 18.49 19.71 18.97 18.48 20.33 20.72 21.79 22.11 23.26 24.38 25.25 26.34 27.50 29.10 30.39 32.47 33.88 35.47 36.96 38.02 38.82 42.02 47.20 52.27 54.61 55.00 55.85 55.99 57.16 57.64 57.92 57.49 57.68 58.18 58.26 57.83 57.53 57.58 56.52 55.89
MSLP
1012.88 1013.12 1013.44 1013.98 1015.62 1016.25 1015.47 1013.72 1011.91 1010.73 1009.69 1008.67 1008.27 1008.57 1009.14 1009.88 1010.25 1011.43 1011.15 1011.65 1012.27 1013.11 1013.64 1014.22 1014.64 1015.06 1015.36 1015.74 1016.09 1016.48 1016.72 1017.01 1017.29 1017.57 1017.85 1018.04 1018.12 1018.24 1018.39 1018.55 1018.87 1018.84 1019.11 1019.26 1019.37 1019.64 1019.82 1019.93 1020.10
1013.02 1013.31 1013.93 1015.00 1016.05 1016.44 1014.91 1012.87 1011.41 1009.94 1009.04 1008.66 1008.55 1008.98 1009.31 1010.23 1010.40 1011.03 1011.54 1011.95 1012.27 1012.97 1013.65 1014.18 1014.65 1015.10 1015.47 1015.86 1016.17 1016.58 1016.91 1017.16 1017.49 1017.80 1018.07 1018.28 1018.45 1018.59 1018.74 1019.03 1019.18 1019.29 1019.50 1019.72 1019.97 1020.13 1020.23 1020.36 1020.45
1012.99 1013.38 1014.51 1015.38 1016.07 1015.46 1013.96 1011.81 1010.47 1009.35 1008.74 1008.76 1008.63 1009.00 1009.47 1010.11 1010.61 1011.02 1011.27 1012.00 1012.33 1013.13 1013.66 1014.18 1014.68 1015.12 1015.55 1015.95 1016.32 1016.66 1017.03 1017.36 1017.70 1018.02 1018.34 1018.60 1018.83 1018.96 1019.10 1019.31 1019.50 1019.59 1019.81 1020.08 1020.41 1020.56 1020.63 1020.59 1020.58
1013.34 1014.13 1015.21 1015.47 1015.50 1013.83 1012.43 1010.84 1009.84 1009.14 1008.70 1008.55 1008.70 1009.53 1009.61 1009.58 1009.91 1010.53 1011.50 1012.08 1012.60 1013.26 1013.76 1014.26 1014.71 1015.20 1015.62 1016.03 1016.42 1016.78 1017.12 1017.54 1017.97 1018.26 1018.60 1018.90 1019.14 1019.41 1019.56 1019.77 1019.91 1019.91 1020.22 1020.45 1020.77 1020.95 1021.04 1021.01 1020.99
1013.55 1014.63 1015.60 1015.74 1014.70 1013.10 1011.59 1010.33 1009.58 1008.93 1008.54 1008.42 1008.64 1009.87 1009.94 1009.92 1009.91 1010.66 1011.68 1012.28 1012.71 1013.43 1013.88 1014.32 1014.79 1015.28 1015.70 1016.14 1016.50 1016.89 1017.20 1017.64 1018.11 1018.48 1018.76 1019.13 1019.46 1019.76 1019.92 1020.12 1020.26 1020.40 1020.57 1020.75 1021.16 1021.29 1021.42 1021.51 1021.55
1014.13 1014.79 1015.73 1015.46 1013.98 1012.42 1011.14 1009.99 1009.60 1009.23 1008.42 1008.63 1009.09 1009.76 1010.34 1010.22 1010.32 1011.06 1011.73 1012.41 1012.80 1013.50 1014.00 1014.45 1014.86 1015.35 1015.79 1016.20 1016.63 1017.00 1017.33 1017.76 1018.23 1018.58 1018.88 1019.27 1019.64 1020.00 1020.27 1020.41 1020.60 1020.75 1020.95 1021.11 1021.49 1021.67 1021.76 1021.95 1022.10
1014.17 1014.87 1014.94 1014.42 1013.29 1012.08 1010.55 1009.44 1009.18 1008.84 1008.38 1008.53 1008.65 1009.91 1010.40 1010.59 1010.65 1011.02 1011.74 1012.44 1013.16 1013.62 1014.24 1014.71 1015.08 1015.47 1015.87 1016.34 1016.75 1017.11 1017.48 1017.88 1018.31 1018.75 1019.16 1019.53 1019.85 1020.16 1020.53 1020.75 1020.95 1021.07 1021.25 1021.42 1021.68 1021.97 1022.19 1022.23 1022.37
1013.70 1014.38 1014.49 1013.59 1012.65 1011.19 1009.46 1008.86 1007.96 1008.26 1008.08 1008.06 1008.23 1009.66 1010.33 1010.32 1010.82 1011.21 1011.84 1012.70 1013.40 1014.03 1014.36 1014.93 1015.35 1015.69 1016.04 1016.49 1016.87 1017.24 1017.63 1018.03 1018.42 1018.92 1019.45 1019.83 1020.13 1020.41 1020.73 1020.99 1021.17 1021.29 1021.46 1021.79 1021.94 1022.21 1022.44 1022.45 1022.83
1013.18 1014.18 1013.99 1012.82 1011.82 1010.21 1008.84 1008.45 1007.80 1007.51 1007.69 1008.09 1008.44 1008.89 1009.38 1010.21 1010.90 1011.57 1012.41 1013.19 1013.72 1014.29 1014.65 1014.94 1015.44 1015.85 1016.23 1016.67 1017.09 1017.46 1017.84 1018.23 1018.66 1019.20 1019.72 1020.10 1020.41 1020.70 1021.01 1021.27 1021.42 1021.51 1021.91 1022.07 1022.22 1022.46 1022.66 1022.80 1023.31
1012.99 1013.51 1012.52 1011.24 1010.36 1009.44 1008.58 1008.09 1007.52 1007.75 1008.13 1008.70 1008.80 1008.99 1009.51 1010.38 1010.75 1011.51 1012.30 1013.10 1013.72 1014.29 1014.78 1015.07 1015.40 1015.85 1016.33 1016.72 1017.25 1017.68 1018.11 1018.55 1018.95 1019.42 1019.91 1020.25 1020.58 1020.89 1021.21 1021.49 1021.66 1021.85 1022.15 1022.22 1022.46 1022.72 1023.04 1023.25 1023.63
1012.17 1011.82 1011.15 1010.45 1009.70 1009.21 1008.54 1007.87 1007.69 1007.60 1008.37 1008.28 1008.59 1009.12 1009.92 1010.50 1011.09 1011.49 1012.25 1012.83 1013.28 1013.87 1014.55 1015.07 1015.43 1015.79 1016.29 1016.72 1017.34 1017.84 1018.31 1018.76 1019.20 1019.59 1020.00 1020.42 1020.83 1021.15 1021.51 1021.81 1022.03 1022.29 1022.47 1022.64 1022.88 1023.15 1023.32 1023.41 1024.09
1011.61 1010.69 1010.39 1009.93 1009.47 1009.02 1008.65 1008.07 1007.85 1007.67 1007.51 1007.63 1008.13 1008.59 1009.85 1010.60 1011.18 1011.49 1012.17 1012.85 1013.43 1013.96 1014.30 1014.82 1015.08 1015.66 1016.18 1016.71 1017.26 1017.80 1018.32 1018.77 1019.28 1019.70 1020.01 1020.47 1021.10 1021.43 1021.83 1022.09 1022.30 1022.63 1022.87 1023.12 1023.39 1023.62 1023.65 1023.54 1024.02
1010.83 1010.31 1010.16 1009.66 1009.50 1009.19 1008.80 1008.49 1008.23 1008.02 1007.89 1007.98 1008.73 1009.07 1009.90 1010.75 1011.49 1011.84 1012.16 1012.79 1013.31 1013.82 1014.26 1014.62 1014.99 1015.50 1015.98 1016.57 1017.18 1017.71 1018.22 1018.65 1019.06 1019.62 1019.93 1020.34 1020.94 1021.41 1021.88 1022.29 1022.51 1022.80 1023.05 1023.30 1023.69 1023.86 1023.83 1023.87 1024.24
1009.91 1009.97 1009.77 1009.55 1009.62 1009.49 1009.46 1008.95 1008.72 1008.46 1008.41 1008.76 1009.20 1009.75 1010.16 1010.72 1011.43 1012.18 1012.62 1013.02 1013.32 1013.68 1014.08 1014.50 1014.88 1015.22 1015.76 1016.46 1016.94 1017.31 1017.91 1018.42 1018.90 1019.42 1019.73 1020.10 1020.59 1021.19 1021.78 1022.37 1022.68 1022.99 1023.12 1023.39 1023.68 1023.99 1024.13 1023.98 1024.36
1010.06 1010.21 1009.85 1009.09 1009.48 1009.55 1009.53 1009.49 1009.02 1008.67 1008.86 1009.31 1009.74 1010.05 1010.63 1011.08 1011.64 1012.15 1012.58 1013.00 1013.25 1013.75 1013.97 1014.44 1014.83 1015.16 1015.76 1016.26 1016.75 1017.27 1017.62 1018.12 1018.65 1019.12 1019.55 1019.89 1020.35 1020.99 1021.50 1022.08 1022.65 1022.91 1023.11 1023.40 1023.72 1024.07 1024.18 1024.06 1024.36
1009.94 1010.47 1009.67 1007.80 1008.96 1009.27 1009.45 1009.07 1008.93 1008.75 1009.27 1009.79 1010.26 1010.91 1011.31 1011.71 1011.91 1012.31 1012.70 1013.04 1013.47 1013.88 1014.28 1014.53 1014.87 1015.32 1015.70 1016.13 1016.54 1017.09 1017.46 1017.87 1018.35 1018.84 1019.33 1019.61 1020.09 1020.60 1021.16 1021.79 1022.32 1022.68 1023.05 1023.35 1023.81 1024.10 1024.42 1024.44 1024.55
1009.43 1008.21 1008.23 1008.23 1007.64 1008.70 1008.95 1008.92 1008.80 1008.92 1009.47 1010.27 1010.67 1011.38 1012.05 1012.67 1013.17 1013.36 1013.44 1013.49 1013.62 1013.86 1014.32 1014.71 1014.93 1015.29 1015.70 1016.03 1016.39 1016.86 1017.27 1017.75 1018.14 1018.65 1019.09 1019.39 1019.77 1020.27 1020.69 1021.26 1021.96 1022.48 1022.97 1023.35 1023.73 1024.13 1024.36 1024.78 1024.89
1007.77 1008.40 1008.16 1007.98 1007.76 1008.24 1008.58 1008.74 1008.70 1009.11 1009.81 1010.62 1011.26 1012.04 1012.99 1013.77 1014.60 1014.67 1014.68 1014.65 1014.56 1014.67 1014.66 1014.75 1015.07 1015.43 1015.84 1016.28 1016.64 1017.03 1017.43 1017.66 1017.96 1018.34 1018.78 1019.15 1019.39 1019.90 1020.35 1020.93 1021.55 1022.20 1022.81 1023.26 1023.75 1024.09 1024.47 1024.75 1025.03
1007.62 1007.93 1007.97 1007.61 1007.53 1007.69 1007.67 1008.75 1009.04 1009.54 1010.33 1011.19 1012.20 1013.23 1014.17 1014.92 1015.70 1015.67 1015.58 1015.47 1015.50 1015.85 1015.94 1015.96 1015.77 1015.67 1016.01 1016.55 1017.09 1017.48 1017.66 1017.70 1017.96 1018.11 1018.41 1018.89 1019.33 1019.75 1020.18 1020.84 1021.42 1021.81 1022.32 1022.73 1023.26 1023.91 1024.43 1025.03 1025.18
1008.17 1008.16 1007.90 1008.02 1007.60 1007.86 1008.61 1009.26 1010.04 1010.64 1011.47 1012.00 1013.07 1014.51 1015.35 1016.17 1016.54 1016.67 1016.73 1016.76 1016.76 1016.87 1016.78 1016.69 1016.66 1016.46 1016.23 1016.27 1016.68 1017.06 1017.52 1017.72 1017.64 1017.75 1018.10 1018.56 1018.93 1019.51 1019.99 1020.41 1021.03 1021.58 1022.16 1022.66 1023.08 1023.42 1024.42 1024.79 1024.84
1007.54 1007.46 1008.27 1008.10 1008.22 1008.55 1009.27 1010.73 1011.20 1012.62 1013.14 1014.01 1015.22 1016.02 1016.72 1017.29 1017.60 1017.71 1017.69 1017.76 1017.67 1017.62 1017.60 1017.46 1017.27 1016.95 1016.58 1016.61 1016.73 1017.22 1017.51 1017.82 1018.03 1018.13 1018.39 1018.55 1018.78 1019.11 1019.66 1020.07 1020.57 1020.96 1021.64 1022.20 1022.59 1023.07 1023.60 1024.26 1024.90
1006.94 1007.31 1008.11 1008.41 1008.68 1008.66 1009.11 1011.42 1012.83 1013.76 1014.94 1016.05 1017.09 1017.84 1018.25 1018.44 1018.54 1018.55 1018.55 1018.43 1018.43 1018.46 1018.25 1017.95 1017.66 1017.32 1016.87 1016.72 1016.72 1016.91 1017.23 1017.75 1017.75 1017.94 1018.20 1018.39 1018.55 1018.85 1019.32 1019.67 1020.12 1020.72 1021.17 1021.75 1022.18 1022.69 1023.05 1023.69 1024.45
1007.35 1007.23 1007.76 1008.63 1008.97 1009.63 1010.33 1012.29 1013.62 1014.95 1016.75 1017.93 1018.65 1019.09 1019.41 1019.47 1019.44 1019.48 1019.45 1019.38 1019.33 1019.13 1018.83 1018.46 1018.11 1017.71 1017.43 1017.12 1016.96 1016.86 1017.13 1017.29 1017.55 1017.85 1018.12 1018.29 1018.43 1018.59 1019.04 1019.34 1019.66 1020.38 1020.80 1021.27 1021.75 1022.38 1022.80 1023.23 1023.85
1008.99 1008.04 1007.94 1008.79 1009.56 1009.87 1010.25 1012.22 1015.40 1016.22 1016.98 1018.87 1019.74 1020.08 1020.34 1020.37 1020.25 1020.14 1020.00 1019.84 1019.86 1019.61 1019.35 1019.03 1018.71 1018.27 1017.94 1017.64 1017.23 1017.01 1016.95 1017.26 1017.66 1017.96 1018.23 1018.32 1018.41 1018.71 1018.87 1019.19 1019.46 1019.90 1020.39 1020.91 1021.38 1021.90 1022.35 1022.76 1023.31
1009.89 1008.77 1007.59 1007.91 1008.61 1008.61 1010.35 1013.24 1017.15 1018.31 1018.72 1019.83 1020.54 1021.10 1021.17 1021.17 1021.04 1020.95 1020.79 1020.57 1020.37 1020.16 1019.95 1019.67 1019.40 1018.92 1018.53 1018.18 1017.68 1017.06 1016.89 1016.94 1017.22 1017.58 1017.92 1018.25 1018.49 1018.56 1018.67 1018.95 1019.52 1019.73 1019.97 1020.37 1020.85 1021.55 1022.01 1022.47 1022.93
1011.80 1009.86 1007.58 1006.72 1007.10 1008.74 1010.80 1014.73 1018.47 1020.04 1020.55 1021.07 1021.54 1021.93 1022.03 1022.03 1022.06 1021.94 1021.76 1021.52 1021.16 1020.82 1020.52 1020.24 1019.87 1019.40 1019.16 1018.76 1018.19 1017.35 1016.90 1016.89 1016.92 1017.18 1017.53 1017.82 1018.03 1018.21 1018.23 1018.65 1019.01 1019.34 1019.71 1020.03 1020.41 1021.03 1021.56 1022.09 1022.58
1014.33 1012.85 1011.13 1009.56 1009.04 1010.33 1014.39 1018.51 1020.42 1021.26 1021.91 1022.29 1022.58 1022.76 1022.99 1023.02 1022.83 1022.69 1022.44 1022.16 1021.82 1021.35 1021.10 1020.82 1020.45 1019.86 1019.54 1019.32 1018.72 1017.98 1017.31 1016.95 1016.67 1016.78 1017.03 1017.33 1017.63 1017.92 1018.12 1018.45 1018.78 1019.00 1019.39 1019.74 1020.23 1020.70 1021.11 1021.60 1022.17
1017.84 1016.65 1014.22 1011.67 1010.82 1012.21 1016.46 1018.88 1020.53 1022.11 1022.87 1023.43 1023.72 1023.97 1024.13 1024.06 1023.86 1023.70 1023.43 1023.08 1022.60 1022.20 1021.76 1021.31 1020.79 1020.35 1019.99 1019.58 1019.17 1018.57 1017.95 1017.20 1016.73 1016.54 1016.72 1016.96 1017.11 1017.28 1017.62 1018.01 1018.35 1018.84 1019.03 1019.50 1020.02 1020.39 1020.72 1021.20 1021.63
1020.58 1019.70 1018.30 1016.12 1013.76 1013.26 1018.35 1021.54 1022.65 1023.25 1024.01 1024.44 1024.74 1025.04 1025.10 1025.06 1024.93 1024.74 1024.45 1024.02 1023.47 1022.86 1022.41 1021.94 1021.27 1020.81 1020.26 1019.82 1019.43 1018.88 1018.25 1017.54 1016.85 1016.39 1016.40 1016.38 1016.59 1016.79 1017.12 1017.48 1017.95 1018.33 1018.79 1019.23 1019.63 1019.93 1020.27 1020.63 1021.06
1022.95 1022.93 1021.65 1019.30 1017.72 1017.99 1019.34 1024.12 1024.78 1024.90 1025.28 1025.56 1025.76 1025.88 1025.98 1026.03 1025.91 1025.65 1025.37 1024.90 1024.20 1023.57 1023.04 1022.43 1021.79 1021.18 1020.67 1020.23 1019.78 1019.16 1018.38 1017.61 1016.84 1016.39 1016.24 1016.33 1016.28 1016.43 1016.70 1016.93 1017.46 1017.70 1018.31 1018.78 1019.13 1019.47 1019.74 1020.06 1020.45
Wind_Speed
1 4 3 5 6 6 4 8 3 5 2 2 1 5 9 4 3 5 8 11 19 16 15 15 20 20 19 19 18 18 18 17 17 17 17 16 17 18 16 16 16 16 16 16 18 18 17 16 18
3 3 5 3 6 4 7 6 9 9 4 6 7 4 6 3 4 9 8 16 20 16 14 14 19 20 20 19 19 19 18 18 18 17 17 16 17 17 17 17 15 20 18 18 18 18 18 16 15
3 2 5 5 4 7 7 7 13 6 6 4 5 4 5 6 6 8 13 18 19 15 13 13 19 20 20 19 19 19 18 17 18 19 17 17 17 16 16 15 11 16 17 18 18 17 16 13 12
3 4 5 4 8 8 7 3 7 6 2 3 5 8 4 2 9 10 17 19 17 14 13 15 19 20 19 19 18 18 18 18 19 19 19 17 17 17 14 16 11 15 16 17 17 15 15 12 19
3 3 3 2 7 6 6 6 2 3 6 4 3 3 3 3 13 21 17 16 17 14 13 13 19 19 19 18 18 18 18 17 19 19 20 19 18 16 14 15 12 16 13 16 16 14 13 15 17
3 4 3 5 7 4 6 9 4 4 5 5 7 6 3 7 20 16 16 15 15 14 13 13 17 19 19 18 17 16 17 17 19 20 20 20 18 17 14 13 13 13 13 13 16 13 11 14 16
6 4 5 4 5 5 9 6 7 8 7 5 11 6 5 6 14 17 15 14 13 14 12 10 11 13 15 16 16 15 16 16 18 19 19 18 18 17 14 13 14 12 15 10 15 11 9 7 15
5 4 3 6 6 7 5 6 7 9 8 5 6 8 8 7 12 14 14 13 13 12 11 10 9 10 10 10 13 13 13 13 15 17 16 14 14 16 13 11 10 14 13 11 13 12 9 11 15
5 2 5 6 8 6 5 7 5 2 8 2 3 7 13 9 16 17 14 12 11 9 10 9 9 8 8 7 9 11 12 13 15 15 15 11 7 8 9 8 9 11 10 6 11 11 8 8 12
6 5 10 8 6 3 3 4 9 6 5 3 5 6 11 14 16 17 17 15 13 12 9 10 9 9 8 7 7 6 7 6 8 9 9 6 6 6 7 7 9 10 10 8 14 12 8 6 4
8 9 9 6 8 3 5 4 3 10 4 7 13 20 13 13 13 14 14 15 13 14 10 10 10 9 8 7 5 4 4 5 5 8 7 6 5 5 4 3 3 4 6 3 6 5 3 3 5
4 15 6 7 4 3 3 5 3 2 7 10 16 23 12 14 14 14 13 13 12 11 12 12 10 10 7 6 6 5 6 5 5 5 7 6 4 5 4 3 4 4 3 5 4 3 3 1 6
10 4 15 8 6 6 6 5 1 2 3 11 11 19 17 13 8 7 11 10 10 8 11 12 11 10 8 8 6 6 6 6 6 6 5 7 6 6 4 4 3 4 4 4 4 4 3 2 4
5 19 5 10 18 5 4 5 1 4 4 11 17 13 14 14 10 7 7 8 9 8 9 9 10 10 9 8 8 8 7 7 6 6 6 9 7 7 5 4 4 4 4 4 4 4 4 3 4
18 10 19 21 7 6 7 8 7 4 7 14 13 15 12 12 9 11 9 9 8 6 8 9 8 8 10 10 8 6 7 7 7 6 7 10 9 8 8 6 4 4 4 6 4 3 2 3 5
11 5 9 7 18 7 11 10 7 9 9 11 10 7 10 8 10 8 8 8 7 6 8 7 7 8 8 8 7 5 6 6 6 6 6 9 10 11 9 7 6 5 4 4 4 4 2 3 5
9 13 21 3 18 7 15 5 9 7 9 8 9 9 8 8 8 7 5 4 8 8 8 8 7 8 7 6 5 6 7 5 5 5 6 8 10 11 9 8 6 7 5 3 4 1 3 3 1
10 14 8 17 9 6 8 6 3 8 10 11 9 13 9 10 8 8 9 9 8 7 3 4 5 7 7 5 4 3 3 4 5 5 6 7 8 11 8 7 8 8 6 5 4 3 2 2 4
3 4 13 5 8 13 21 16 8 3 13 10 8 10 12 11 5 9 10 10 7 10 9 7 2 5 4 3 3 2 3 2 3 4 7 8 6 6 8 6 7 8 9 8 8 4 5 2 3
19 5 6 3 7 9 9 11 4 5 3 6 14 10 9 7 8 9 10 10 11 8 8 8 7 5 3 3 3 3 4 2 2 4 5 7 9 8 6 9 8 9 6 6 6 5 3 2 5
23 24 4 5 4 2 10 2 7 7 13 14 13 11 10 8 8 8 10 10 9 11 9 9 8 7 4 3 4 3 3 3 2 2 3 4 8 9 9 10 8 10 8 8 9 7 7 4 3
26 25 14 7 10 11 8 6 5 8 11 11 10 9 8 8 9 9 9 10 10 9 8 8 8 7 6 3 4 5 5 4 3 4 3 4 7 9 10 11 10 9 7 7 8 5 5 5 8
7 15 20 12 5 6 3 6 2 11 7 8 7 9 8 7 8 9 8 8 8 8 8 7 8 7 8 8 5 6 5 4 3 3 5 5 4 7 8 10 11 10 8 7 8 8 7 6 7
8 7 19 16 8 9 9 8 5 8 7 7 7 9 8 8 8 8 7 8 9 8 9 8 10 8 10 9 7 7 8 6 4 4 4 4 4 4 6 7 9 10 9 9 7 8 9 9 5
8 8 9 15 16 11 16 5 3 6 12 11 11 9 7 7 10 11 11 10 10 10 10 9 10 9 11 11 11 6 7 9 9 7 7 8 4 4 7 8 7 7 9 10 9 9 9 8 7
5 12 5 12 10 22 13 10 6 9 11 11 10 10 11 12 10 11 10 10 9 9 9 9 10 10 10 11 12 8 6 6 6 7 6 7 9 7 7 9 9 9 10 8 9 7 7 8 7
5 4 10 2 2 13 9 5 9 10 11 11 12 13 12 11 11 11 11 10 10 10 10 9 10 10 11 10 10 10 7 4 7 9 8 8 9 7 8 10 9 9 9 9 9 6 8 8 8
5 6 1 7 10 7 5 6 9 11 11 11 11 11 10 11 12 11 11 11 10 10 9 10 10 10 10 10 9 8 10 8 4 4 7 8 9 8 8 10 10 9 9 9 9 8 8 9 7
8 7 6 4 3 6 9 2 5 10 10 10 11 11 10 11 11 10 10 11 10 10 10 10 10 11 11 10 10 10 9 9 7 4 4 5 8 10 12 12 11 10 10 10 10 10 10 11 10
7 8 3 2 6 5 6 5 5 9 8 12 11 11 10 10 10 10 10 11 12 12 12 11 10 10 11 11 10 10 10 10 9 6 5 4 5 8 10 11 11 10 11 10 11 11 10 11 11
Wind_Direction
110 59 67 45 78 67 243 250 257 284 219 212 109 149 128 66 137 196 141 130 136 144 148 150 152 149 147 140 139 133 131 127 119 121 116 115 110 103 99 102 105 98 98 97 90 90 95 97 92
97 106 45 84 98 122 254 233 237 224 234 147 101 102 64 92 91 125 109 143 139 142 148 149 153 152 149 144 139 139 136 133 128 123 119 119 114 110 103 102 113 102 106 103 97 95 94 96 98
100 83 92 122 137 188 214 217 234 238 246 249 101 66 113 129 107 132 133 142 137 142 146 148 154 152 150 147 142 143 142 137 130 123 121 118 116 113 113 106 107 115 114 108 95 94 91 83 87
138 27 28 113 213 249 209 205 243 170 237 225 109 76 62 241 141 133 138 140 136 140 144 145 148 150 149 149 147 147 144 140 134 131 124 120 120 112 111 101 95 97 101 103 94 94 85 75 93
51 66 106 206 245 255 250 293 356 164 172 143 139 154 70 51 117 130 137 141 138 141 143 142 148 149 147 146 146 147 144 142 139 135 127 123 121 121 115 112 101 102 104 103 99 95 87 86 92
71 110 108 205 239 250 271 240 225 252 164 155 90 98 149 115 132 141 139 144 139 140 142 144 143 146 146 145 145 146 140 141 145 140 132 129 126 124 114 116 107 113 110 100 108 95 78 86 101
134 112 202 207 252 266 234 216 189 205 157 179 151 103 143 140 143 144 138 135 134 140 139 139 141 143 143 145 146 146 143 145 151 143 135 131 129 126 118 116 120 126 118 121 110 97 93 101 89
132 109 210 226 198 258 239 188 179 180 206 102 153 162 176 176 139 135 131 129 133 141 140 141 141 141 140 145 140 139 136 141 147 135 127 128 128 126 118 115 130 133 133 125 121 112 116 113 79
135 103 215 229 171 232 238 186 173 230 119 87 109 140 158 125 129 125 128 128 129 138 144 140 142 142 139 136 145 136 135 130 125 122 126 125 125 122 117 128 119 137 115 135 119 115 110 85 83
154 172 214 211 219 232 293 209 162 134 123 55 80 90 128 136 140 143 144 150 151 149 148 148 147 146 141 146 139 129 122 130 130 130 133 128 126 127 127 130 131 122 118 136 128 115 113 88 79
191 203 200 236 234 268 278 209 218 148 195 186 154 144 147 139 142 139 146 155 160 157 155 154 152 148 147 142 136 127 127 132 134 138 132 130 127 123 119 121 110 101 100 91 87 97 102 141 112
187 238 189 216 222 270 246 308 184 206 190 162 161 152 146 149 153 152 146 152 147 156 162 162 157 156 155 140 148 143 142 143 147 151 138 131 127 130 134 136 139 120 118 117 118 130 148 190 96
206 251 218 231 226 281 327 302 196 208 141 128 143 150 152 149 143 139 143 146 146 147 159 168 160 164 160 154 153 151 156 158 161 154 151 144 149 147 139 146 141 133 137 134 138 142 162 178 109
211 229 232 228 242 260 226 256 228 204 126 131 150 153 155 150 151 127 143 156 156 152 157 160 164 166 159 160 165 167 163 164 165 162 166 158 155 150 149 148 158 154 163 155 154 167 193 190 119
222 217 233 241 202 216 161 247 201 204 148 160 170 162 161 164 149 164 167 163 166 168 159 158 154 159 165 164 165 159 169 167 172 171 169 163 154 161 157 158 164 178 180 163 161 134 208 235 120
187 209 227 222 209 219 167 227 222 188 147 163 161 158 159 158 170 160 159 157 169 148 160 153 151 159 157 162 165 165 164 167 172 170 172 166 164 167 161 162 175 172 173 167 159 154 128 181 138
202 215 216 271 193 171 187 190 211 177 159 169 158 150 150 102 59 47 75 129 155 160 155 166 161 155 154 151 152 165 164 165 171 153 170 179 171 172 166 171 170 164 172 177 154 127 132 165 124
196 203 214 209 189 153 177 180 189 172 169 172 169 153 117 105 64 52 49 51 54 39 57 155 165 157 146 133 114 101 135 163 165 172 172 174 175 171 170 165 166 162 172 178 159 146 104 166 138
187 199 211 243 216 173 196 190 194 176 186 173 158 119 114 92 67 48 42 36 50 47 43 24 270 179 142 126 136 129 163 167 168 169 174 171 174 162 157 149 159 165 178 177 173 134 145 99 127
239 245 225 240 201 183 180 197 105 37 53 136 130 116 105 96 64 47 40 37 39 36 22 23 17 335 233 148 143 147 152 197 177 176 175 178 175 169 170 164 163 175 152 154 160 146 127 100 179
229 224 170 178 179 49 115 129 157 61 81 80 68 80 69 73 69 49 46 37 29 27 13 7 353 338 286 216 115 77 71 65 140 191 178 174 180 173 167 171 168 170 178 179 176 164 162 146 200
223 219 194 191 183 205 161 197 152 138 91 70 71 65 66 66 59 52 42 38 28 14 6 1 352 346 345 258 187 162 166 170 196 174 176 170 168 175 179 178 169 173 172 176 182 179 159 139 181
253 211 209 210 181 117 229 111 179 137 124 107 88 82 67 59 64 58 50 47 33 19 10 352 354 359 360 349 244 192 186 179 146 140 182 185 174 172 180 181 166 179 180 180 181 179 176 180 167
285 238 198 197 207 218 204 143 212 183 154 118 92 75 71 65 60 57 48 49 37 25 23 6 360 5 1 353 306 224 194 169 155 163 185 208 188 182 180 183 183 180 179 180 178 185 192 181 176
269 167 180 194 204 214 186 163 72 33 86 100 98 78 57 50 53 46 39 34 32 24 19 15 6 9 2 352 344 245 213 187 185 180 190 193 187 190 197 182 184 183 181 183 185 189 190 195 185
294 228 211 211 186 192 168 165 143 92 78 78 72 68 56 51 46 40 32 30 24 24 20 13 8 13 6 354 342 326 224 203 192 183 184 200 210 208 193 195 191 190 183 185 186 188 196 192 199
332 235 325 192 309 174 112 74 85 98 76 66 62 55 47 37 32 29 23 20 14 17 17 13 8 10 10 358 346 337 345 245 198 190 189 193 198 200 184 195 193 190 183 183 184 189 192 189 196
1 357 328 218 181 129 82 115 139 145 106 80 65 56 44 37 31 25 19 13 11 12 8 7 11 9 1 358 352 341 323 324 249 214 199 206 205 179 179 189 189 187 180 185 192 200 198 196 198
353 9 332 244 280 191 129 92 38 102 99 84 76 63 47 38 27 19 13 8 9 8 5 360 5 3 359 358 346 340 330 322 299 219 224 221 197 192 189 193 191 187 191 193 197 202 203 202 205
93 354 259 302 3 34 41 92 15 87 87 75 62 63 57 42 29 20 12 5 6 4 360 356 358 359 358 346 345 338 333 331 313 222 207 205 194 193 198 192 196 182 194 197 200 206 205 205 209